GW7162 Weather Reports


time (UTC)temp
C
wind
direction
speed
KPH
gust
KPH
rain 1hr
cm
rain 24hr
cm
rain mn
cm
humidity
%
barometer
mb
20260906172546 36 182 1.6 1.6 0.00 0.00 0.00 43 1015.8
20260906172042 36 184 0.0 0.0 0.00 0.00 0.00 43 1015.8
20260906171541 36 90 0.0 0.0 0.00 0.00 0.00 43 1015.9
20260906171037 35 131 0.0 0.0 0.00 0.00 0.00 45 1016.0
20260906170533 35 171 0.0 0.0 0.00 0.00 0.00 44 1016.3
20260906170032 35 2 3.2 3.2 0.00 0.00 0.00 44 1016.1
20260906165529 35 143 0.0 0.0 0.00 0.00 0.00 44 1016.0
20260906165024 35 178 0.0 0.0 0.00 0.00 0.00 46 1016.4
20260906164523 35 170 0.0 0.0 0.00 0.00 0.00 45 1016.2
20260906164019 35 70 0.0 0.0 0.00 0.00 0.00 45 1016.4
20260906163514 35 341 3.2 3.2 0.00 0.00 0.00 45 1016.3
20260906163009 35 141 0.0 0.0 0.00 0.00 0.00 47 1016.4
20260906162506 33 182 0.0 0.0 0.00 0.00 0.00 51 1016.4
20260906162001 33 183 0.0 1.6 0.00 0.00 0.00 50 1016.7
20260906161456 34 214 1.6 1.6 0.00 0.00 0.00 48 1016.7
20260906160955 33 171 0.0 0.0 0.00 0.00 0.00 51 1016.4
20260906160454 33 92 1.6 3.2 0.00 0.00 0.00 49 1016.7
20260906155952 33 174 0.0 0.0 0.00 0.00 0.00 50 1016.4
20260906155451 33 157 0.0 0.0 0.00 0.00 0.00 49 1016.9
20260906154947 32 162 0.0 0.0 0.00 0.00 0.00 51 1016.5
20260906154443 32 193 0.0 0.0 0.00 0.00 0.00 52 1016.4
20260906153941 32 168 0.0 0.0 0.00 0.00 0.00 53 1016.5
20260906153440 32 172 0.0 0.0 0.00 0.00 0.00 55 1016.3
20260906152936 31 179 0.0 0.0 0.00 0.00 0.00 54 1016.1
20260906152435 31 178 0.0 0.0 0.00 0.00 0.00 54 1016.3
20260906151934 31 178 0.0 0.0 0.00 0.00 0.00 55 1016.4
20260906151430 31 189 0.0 0.0 0.00 0.00 0.00 55 1016.5
20260906150926 30 190 1.6 1.6 0.00 0.00 0.00 56 1016.3
20260906150420 30 180 0.0 0.0 0.00 0.00 0.00 58 1016.3
20260906145920 30 191 0.0 1.6 0.00 0.00 0.00 58 1016.3
20260906145419 30 183 0.0 0.0 0.00 0.00 0.00 60 1016.4
20260906144914 30 191 0.0 0.0 0.00 0.00 0.00 60 1016.3
20260906144409 30 169 0.0 0.0 0.00 0.00 0.00 60 1016.2
20260906143904 30 172 0.0 0.0 0.00 0.00 0.00 61 1016.2
20260906143400 29 186 0.0 0.0 0.00 0.00 0.00 62 1016.1
20260906142856 29 164 0.0 0.0 0.00 0.00 0.00 63 1016.1
20260906142355 29 173 0.0 0.0 0.00 0.00 0.00 66 1016.4
20260906141851 28 173 0.0 0.0 0.00 0.00 0.00 65 1016.3
20260906141350 28 166 0.0 0.0 0.00 0.00 0.00 67 1016.3
20260906140850 28 180 0.0 0.0 0.00 0.00 0.00 69 1016.3
20260906140344 27 171 0.0 0.0 0.00 0.00 0.00 69 1016.5
20260906135843 27 176 0.0 0.0 0.00 0.00 0.00 70 1016.3
20260906135343 27 166 0.0 0.0 0.00 0.00 0.00 69 1016.3
20260906134838 27 167 0.0 0.0 0.00 0.00 0.00 71 1016.2
20260906134339 26 169 0.0 0.0 0.00 0.00 0.00 73 1016.2
20260906133835 26 143 0.0 0.0 0.00 0.00 0.00 75 1016.2
20260906133330 26 177 0.0 0.0 0.00 0.00 0.00 76 1016.3
20260906132825 25 165 0.0 0.0 0.00 0.00 0.00 76 1016.2
20260906132320 25 166 0.0 0.0 0.00 0.00 0.00 78 1016.3
20260906131816 25 155 0.0 1.6 0.00 0.00 0.00 79 1016.1
20260906131311 26 147 0.0 0.0 0.00 0.00 0.00 77 1016.1
20260906130807 25 167 0.0 0.0 0.00 0.00 0.00 77 1016.0
20260906130306 25 170 0.0 0.0 0.00 0.00 0.00 79 1016.2
20260906125805 23 166 0.0 0.0 0.00 0.00 0.00 82 1016.0
20260906125306 23 165 0.0 0.0 0.00 0.00 0.00 85 1015.9
20260906124758 23 172 0.0 0.0 0.00 0.00 0.00 87 1015.9
20260906124254 22 177 0.0 0.0 0.00 0.00 0.00 88 1015.6
20260906123753 22 177 0.0 0.0 0.00 0.00 0.00 89 1015.7
20260906123248 22 176 0.0 0.0 0.00 0.00 0.00 89 1015.6
20260906122747 22 175 0.0 0.0 0.00 0.00 0.00 90 1015.6
20260906122243 22 175 0.0 0.0 0.00 0.00 0.00 90 1015.5
20260906121739 22 175 0.0 0.0 0.00 0.00 0.00 90 1015.7
20260906121236 22 174 0.0 0.0 0.00 0.00 0.00 90 1015.6
20260906120731 22 182 0.0 0.0 0.00 0.00 0.00 91 1015.3
20260906120228 22 183 0.0 0.0 0.00 0.00 0.00 91 1015.6
20260906115723 22 183 0.0 0.0 0.00 0.00 0.00 91 1015.4
20260906115224 22 177 0.0 0.0 0.00 0.00 0.00 91 1015.3
20260906114723 22 179 0.0 0.0 0.00 0.00 0.00 90 1015.3
20260906114218 22 179 0.0 0.0 0.00 0.00 0.00 90 1015.2
20260906113714 22 179 0.0 0.0 0.00 0.00 0.00 90 1015.2
20260906113213 22 179 0.0 0.0 0.00 0.00 0.00 89 1015.0
20260906112712 22 179 0.0 0.0 0.00 0.00 0.00 89 1015.1
20260906112210 22 179 0.0 0.0 0.00 0.00 0.00 89 1015.1
20260906111709 22 179 0.0 0.0 0.00 0.00 0.00 89 1015.0
20260906111203 22 179 0.0 0.0 0.00 0.00 0.00 89 1015.0
20260906110659 22 180 0.0 0.0 0.00 0.00 0.00 89 1015.0
20260906110154 22 181 0.0 0.0 0.00 0.00 0.00 89 1015.1
20260906105654 22 170 0.0 0.0 0.00 0.00 0.00 88 1015.0
20260906105150 22 170 0.0 0.0 0.00 0.00 0.00 87 1014.9
20260906104649 22 170 0.0 0.0 0.00 0.00 0.00 87 1015.0
20260906104149 22 170 0.0 0.0 0.00 0.00 0.00 87 1015.1
20260906103646 22 170 0.0 0.0 0.00 0.00 0.00 87 1015.0
20260906103142 22 171 0.0 0.0 0.00 0.00 0.00 87 1014.8
20260906102637 22 171 0.0 0.0 0.00 0.00 0.00 86 1014.9
20260906102137 22 171 0.0 0.0 0.00 0.00 0.00 86 1014.7
20260906101637 22 171 0.0 0.0 0.00 0.00 0.00 86 1014.7
20260906101137 22 170 0.0 0.0 0.00 0.00 0.00 85 1014.9
20260906100632 22 170 0.0 0.0 0.00 0.00 0.00 85 1014.8
20260906100127 22 176 0.0 0.0 0.00 0.00 0.00 85 1014.8
20260906095628 22 176 0.0 0.0 0.00 0.00 0.00 85 1014.8
20260906095123 22 176 0.0 0.0 0.00 0.00 0.00 85 1014.9
20260906094622 22 181 0.0 0.0 0.00 0.00 0.00 85 1014.8
20260906094118 22 181 0.0 0.0 0.00 0.00 0.00 85 1014.9
20260906093614 23 184 0.0 0.0 0.00 0.00 0.00 84 1014.7
20260906093108 23 178 0.0 0.0 0.00 0.00 0.00 83 1014.8
20260906092603 23 178 0.0 0.0 0.00 0.00 0.00 83 1014.9
20260906092058 23 178 0.0 0.0 0.00 0.00 0.00 83 1014.8
20260906091554 23 176 0.0 0.0 0.00 0.00 0.00 83 1014.8
20260906091051 23 157 0.0 0.0 0.00 0.00 0.00 83 1014.6
20260906090550 23 177 0.0 0.0 0.00 0.00 0.00 82 1014.8
20260906090046 23 177 0.0 0.0 0.00 0.00 0.00 82 1014.6
20260906085544 23 177 0.0 0.0 0.00 0.00 0.00 82 1014.6
20260906085044 23 177 0.0 0.0 0.00 0.00 0.00 82 1014.5
20260906084539 23 177 0.0 0.0 0.00 0.00 0.00 81 1014.5
20260906084037 23 176 0.0 0.0 0.00 0.00 0.00 81 1014.5
20260906083533 23 176 0.0 0.0 0.00 0.00 0.00 81 1014.6
20260906083033 23 177 0.0 0.0 0.00 0.00 0.00 81 1014.4
20260906082528 23 176 0.0 0.0 0.00 0.00 0.00 80 1014.5
20260906082024 23 186 0.0 0.0 0.00 0.00 0.00 80 1014.5
20260906081520 23 172 0.0 0.0 0.00 0.00 0.00 81 1014.5
20260906081015 23 173 0.0 0.0 0.00 0.00 0.00 81 1014.5
20260906080512 23 173 0.0 0.0 0.00 0.00 0.00 80 1014.5
20260906080008 23 173 0.0 0.0 0.00 0.00 0.00 80 1014.5
20260906075501 23 173 0.0 0.0 0.00 0.00 0.00 80 1014.4
20260906074956 23 172 0.0 0.0 0.00 0.00 0.00 80 1014.5
20260906074451 23 172 0.0 0.0 0.00 0.00 0.00 80 1014.4
20260906073949 23 173 0.0 0.0 0.00 0.00 0.00 80 1014.4
20260906073444 23 173 0.0 0.0 0.00 0.00 0.00 80 1014.4
20260906072941 23 173 0.0 0.0 0.00 0.00 0.00 79 1014.5
20260906072435 24 173 0.0 0.0 0.00 0.00 0.00 79 1014.5
20260906071931 24 172 0.0 0.0 0.00 0.00 0.00 78 1014.6
20260906071427 24 171 0.0 0.0 0.00 0.00 0.00 77 1014.6
20260906070923 24 172 0.0 0.0 0.00 0.00 0.00 77 1014.7
20260906070419 25 171 0.0 0.0 0.00 0.00 0.00 76 1014.5
20260906065915 25 170 0.0 0.0 0.00 0.00 0.00 76 1014.5
20260906065409 25 170 0.0 0.0 0.00 0.00 0.00 75 1014.7
20260906064905 25 169 0.0 0.0 0.00 0.00 0.00 75 1014.7
20260906064401 25 177 0.0 0.0 0.00 0.00 0.00 75 1014.8
20260906063900 25 177 0.0 0.0 0.00 0.00 0.00 75 1014.7
20260906063355 25 176 0.0 0.0 0.00 0.00 0.00 74 1014.8
20260906062850 25 176 0.0 0.0 0.00 0.00 0.00 74 1014.9
20260906062350 25 176 0.0 0.0 0.00 0.00 0.00 74 1014.8
20260906061845 25 176 0.0 0.0 0.00 0.00 0.00 74 1014.8
20260906061342 25 179 0.0 0.0 0.00 0.00 0.00 73 1014.8
20260906060836 25 179 0.0 0.0 0.00 0.00 0.00 73 1014.7
20260906060334 25 179 0.0 0.0 0.00 0.00 0.00 73 1014.8
20260906055830 25 179 0.0 0.0 0.00 0.00 0.00 72 1014.8
20260906055325 25 179 0.0 0.0 0.00 0.00 0.00 72 1014.7
20260906054820 26 179 0.0 0.0 0.00 0.00 0.00 72 1014.6
20260906054315 26 179 0.0 0.0 0.00 0.00 0.00 70 1014.7
20260906053812 26 179 0.0 0.0 0.00 0.00 0.00 70 1014.7
20260906053307 26 179 0.0 0.0 0.00 0.00 0.00 70 1014.7
20260906052802 26 183 0.0 0.0 0.00 0.00 0.00 70 1014.6
20260906052258 26 193 3.2 3.2 0.00 0.00 0.00 70 1014.7
20260906051755 28 176 0.0 0.0 0.00 0.00 0.00 63 1014.6
20260906051254 28 168 0.0 0.0 0.00 0.00 0.00 58 1014.4
20260906050750 28 168 0.0 0.0 0.00 0.00 0.00 58 1014.6
20260906050245 28 146 0.0 0.0 0.00 0.00 0.00 59 1014.2
20260906045744 28 166 0.0 0.0 0.00 0.00 0.00 59 1014.4
20260906045239 28 149 0.0 0.0 0.00 0.00 0.00 58 1014.4
20260906044735 28 157 0.0 0.0 0.00 0.00 0.00 58 1014.5
20260906044229 28 169 0.0 0.0 0.00 0.00 0.00 59 1014.4
20260906043726 28 168 0.0 0.0 0.00 0.00 0.00 59 1014.4
20260906043221 28 155 0.0 0.0 0.00 0.00 0.00 59 1014.5
20260906042721 28 145 0.0 0.0 0.00 0.00 0.00 58 1014.6
20260906042220 28 154 0.0 0.0 0.00 0.00 0.00 59 1014.5
20260906041716 28 151 0.0 0.0 0.00 0.00 0.00 59 1014.6
20260906041211 29 158 0.0 0.0 0.00 0.00 0.00 59 1014.6
20260906040706 28 156 0.0 0.0 0.00 0.00 0.00 59 1014.4
20260906040202 28 151 0.0 0.0 0.00 0.00 0.00 60 1014.4
20260906035657 28 136 0.0 0.0 0.00 0.00 0.00 60 1014.4
20260906035153 28 157 0.0 0.0 0.00 0.00 0.00 61 1014.3
20260906034647 28 162 0.0 0.0 0.00 0.00 0.00 61 1014.4
20260906034142 27 167 0.0 0.0 0.00 0.00 0.00 64 1014.4
20260906033638 27 177 0.0 0.0 0.00 0.00 0.00 66 1014.4
20260906033137 28 177 0.0 0.0 0.00 0.00 0.00 66 1014.4
20260906032635 28 178 0.0 0.0 0.00 0.00 0.00 63 1014.3
20260906032134 28 178 0.0 0.0 0.00 0.00 0.00 62 1014.3
20260906031629 29 173 0.0 0.0 0.00 0.00 0.00 61 1014.2
20260906031125 29 169 0.0 0.0 0.00 0.00 0.00 59 1014.3
20260906030624 29 160 0.0 0.0 0.00 0.00 0.00 59 1014.2
20260906030120 29 166 0.0 0.0 0.00 0.00 0.00 59 1014.3
20260906025619 29 153 0.0 1.6 0.00 0.00 0.00 59 1014.2
20260906025118 30 166 0.0 1.6 0.00 0.00 0.00 57 1014.4
20260906024613 30 162 0.0 0.0 0.00 0.00 0.00 56 1014.1
20260906024113 30 167 0.0 0.0 0.00 0.00 0.00 55 1014.1
20260906023604 30 166 0.0 0.0 0.00 0.00 0.00 54 1013.7
20260906023103 30 159 0.0 0.0 0.00 0.00 0.00 54 1014.1
20260906022559 31 171 0.0 0.0 0.00 0.00 0.00 53 1013.8
20260906022054 31 165 0.0 1.6 0.00 0.00 0.00 53 1013.7
20260906021550 31 167 0.0 0.0 0.00 0.00 0.00 53 1013.7
20260906021049 31 160 0.0 0.0 0.00 0.00 0.00 52 1013.7
20260906020548 31 156 0.0 0.0 0.00 0.00 0.00 52 1013.7
20260906020048 31 169 0.0 0.0 0.00 0.00 0.00 51 1013.4
20260906015547 31 169 0.0 0.0 0.00 0.00 0.00 51 1013.5
20260906015047 31 168 0.0 0.0 0.00 0.00 0.00 50 1013.5
20260906014542 32 169 0.0 0.0 0.00 0.00 0.00 50 1013.4
20260906014038 32 169 0.0 0.0 0.00 0.00 0.00 49 1013.2
20260906013533 32 168 0.0 0.0 0.00 0.00 0.00 49 1013.2
20260906013029 32 163 0.0 0.0 0.00 0.00 0.00 48 1013.2
20260906012524 31 115 0.0 1.6 0.00 0.00 0.00 49 1013.2
20260906012023 30 176 0.0 0.0 0.00 0.00 0.00 55 1013.1
20260906011519 30 179 0.0 0.0 0.00 0.00 0.00 54 1012.8
20260906011019 30 179 0.0 0.0 0.00 0.00 0.00 54 1013.0
20260906010514 31 179 0.0 0.0 0.00 0.00 0.00 52 1013.0
20260906010011 31 179 0.0 0.0 0.00 0.00 0.00 51 1013.0
20260906005510 32 179 0.0 0.0 0.00 0.00 0.00 50 1013.1
20260906005009 32 168 0.0 0.0 0.00 0.00 0.00 47 1013.0
20260906004509 32 171 0.0 0.0 0.00 0.00 0.00 47 1013.0
20260906004004 33 154 0.0 0.0 0.00 0.00 0.00 44 1013.0
20260906003459 32 160 0.0 0.0 0.00 0.00 0.00 45 1012.9
20260906002954 31 177 0.0 0.0 0.00 0.00 0.00 49 1012.9
20260906002454 31 177 0.0 0.0 0.00 0.00 0.00 48 1012.8
20260906001950 32 177 0.0 0.0 0.00 0.00 0.00 47 1012.8
20260906001446 32 177 0.0 0.0 0.00 0.00 0.00 46 1012.8
20260906000940 32 177 0.0 0.0 0.00 0.00 0.00 46 1012.8
20260906000436 32 177 0.0 0.0 0.00 0.00 0.00 46 1012.9
20260905235930 33 177 0.0 0.0 0.00 0.00 0.00 44 1012.8
20260905235430 33 177 0.0 0.0 0.00 0.00 0.00 43 1012.9
20260905234925 33 177 0.0 0.0 0.00 0.00 0.00 42 1013.0
20260905234420 34 177 0.0 0.0 0.00 0.00 0.00 42 1012.9
20260905233915 35 177 0.0 0.0 0.00 0.00 0.00 41 1012.9
20260905233410 35 175 0.0 0.0 0.00 0.00 0.00 39 1012.8
20260905232909 36 165 0.0 0.0 0.00 0.00 0.00 36 1012.8
20260905232405 36 153 3.2 3.2 0.00 0.00 0.00 35 1012.9
20260905231901 35 181 0.0 0.0 0.00 0.00 0.00 40 1012.7
20260905231356 36 179 0.0 0.0 0.00 0.00 0.00 38 1012.9
20260905230853 36 180 0.0 0.0 0.00 0.00 0.00 39 1012.8
20260905230350 36 183 0.0 0.0 0.00 0.00 0.00 40 1012.8
20260905225849 36 170 0.0 0.0 0.00 0.00 0.00 36 1012.8
20260905225344 36 163 1.6 3.2 0.00 0.00 0.00 37 1012.7
20260905224840 36 181 0.0 0.0 0.00 0.00 0.00 40 1012.8
20260905224336 36 193 0.0 0.0 0.00 0.00 0.00 38 1012.6
20260905223830 37 190 1.6 1.6 0.00 0.00 0.00 38 1012.5
20260905223328 37 167 0.0 0.0 0.00 0.00 0.00 38 1012.7
20260905222822 37 181 0.0 0.0 0.00 0.00 0.00 39 1012.7
20260905222321 37 168 0.0 0.0 0.00 0.00 0.00 36 1012.6
20260905221817 37 153 0.0 1.6 0.00 0.00 0.00 36 1012.6
20260905221314 37 173 0.0 1.6 0.00 0.00 0.00 37 1012.7
20260905220810 37 155 0.0 1.6 0.00 0.00 0.00 36 1012.8
20260905220306 37 184 0.0 0.0 0.00 0.00 0.00 37 1012.7
20260905215805 37 174 0.0 0.0 0.00 0.00 0.00 38 1012.8
20260905215300 37 169 1.6 1.6 0.00 0.00 0.00 36 1012.9
20260905214756 37 206 3.2 4.8 0.00 0.00 0.00 37 1013.0
20260905214252 37 195 1.6 1.6 0.00 0.00 0.00 38 1012.9
20260905213747 37 175 0.0 0.0 0.00 0.00 0.00 37 1013.1
20260905213243 37 164 1.6 1.6 0.00 0.00 0.00 37 1013.1
20260905212738 37 182 1.6 1.6 0.00 0.00 0.00 37 1013.1
20260905212237 37 151 0.0 0.0 0.00 0.00 0.00 37 1013.2
20260905211737 37 224 8.0 9.7 0.00 0.00 0.00 37 1013.2
20260905211232 38 192 1.6 3.2 0.00 0.00 0.00 37 1013.2
20260905210729 38 209 0.0 0.0 0.00 0.00 0.00 35 1013.2
20260905210229 38 202 1.6 1.6 0.00 0.00 0.00 36 1013.5
20260905205727 38 162 0.0 1.6 0.00 0.00 0.00 37 1013.6
20260905205223 38 152 0.0 1.6 0.00 0.00 0.00 36 1013.7
20260905204722 38 173 1.6 1.6 0.00 0.00 0.00 37 1013.7
20260905204218 38 124 0.0 0.0 0.00 0.00 0.00 37 1014.0
20260905203717 38 170 0.0 0.0 0.00 0.00 0.00 37 1013.8
20260905203213 38 244 0.0 1.6 0.00 0.00 0.00 36 1014.0
20260905202708 38 205 1.6 1.6 0.00 0.00 0.00 37 1014.1
20260905202203 37 222 1.6 3.2 0.00 0.00 0.00 37 1014.2
20260905201659 38 185 0.0 0.0 0.00 0.00 0.00 36 1014.4
20260905201158 38 202 0.0 1.6 0.00 0.00 0.00 36 1014.2
20260905200654 38 177 0.0 0.0 0.00 0.00 0.00 36 1014.3
20260905200149 37 146 0.0 0.0 0.00 0.00 0.00 38 1014.3
20260905195648 37 162 1.6 1.6 0.00 0.00 0.00 39 1014.4
20260905195143 37 203 3.2 4.8 0.00 0.00 0.00 38 1014.5
20260905194638 37 179 0.0 0.0 0.00 0.00 0.00 38 1014.5
20260905194137 38 200 0.0 1.6 0.00 0.00 0.00 37 1014.7
20260905193632 37 154 0.0 0.0 0.00 0.00 0.00 38 1014.7
20260905193133 37 52 3.2 3.2 0.00 0.00 0.00 39 1014.8
20260905192628 37 124 3.2 4.8 0.00 0.00 0.00 39 1014.8
20260905192125 37 163 3.2 3.2 0.00 0.00 0.00 39 1014.7
20260905191624 37 177 0.0 0.0 0.00 0.00 0.00 39 1014.9
20260905191122 35 185 0.0 1.6 0.00 0.00 0.00 43 1014.9
20260905190621 35 172 0.0 0.0 0.00 0.00 0.00 42 1015.0
20260905190121 35 179 0.0 0.0 0.00 0.00 0.00 44 1015.2
20260905185619 35 180 0.0 0.0 0.00 0.00 0.00 42 1015.3
20260905185114 36 177 0.0 0.0 0.00 0.00 0.00 43 1015.3
20260905184609 37 184 1.6 1.6 0.00 0.00 0.00 42 1015.4
20260905184108 38 197 1.6 3.2 0.00 0.00 0.00 39 1015.3
20260905183607 37 179 0.0 0.0 0.00 0.00 0.00 41 1015.7
20260905183102 37 279 1.6 3.2 0.00 0.00 0.00 41 1015.5
20260905182602 36 170 0.0 0.0 0.00 0.00 0.00 42 1015.7
20260905182056 36 176 0.0 0.0 0.00 0.00 0.00 42 1015.8
20260905181556 36 183 0.0 0.0 0.00 0.00 0.00 42 1015.8
20260905181055 35 183 0.0 0.0 0.00 0.00 0.00 43 1015.9
20260905180550 35 151 0.0 0.0 0.00 0.00 0.00 43 1015.9
20260905180046 35 179 0.0 0.0 0.00 0.00 0.00 44 1016.0
20260905175545 35 183 0.0 0.0 0.00 0.00 0.00 45 1016.1
20260905175041 36 179 0.0 0.0 0.00 0.00 0.00 46 1016.1
20260905174536 36 181 1.6 1.6 0.00 0.00 0.00 44 1016.1
20260905174032 35 180 0.0 0.0 0.00 0.00 0.00 44 1016.1
20260905173528 35 151 0.0 1.6 0.00 0.00 0.00 45 1016.4
20260905173023 35 119 0.0 0.0 0.00 0.00 0.00 46 1016.4